CW0608 Weather Reports


time (UTC)temp
C
wind
direction
speed
KPH
gust
KPH
rain 1hr
cm
rain 24hr
cm
rain mn
cm
humidity
%
barometer
mb
20260505022304 16 170 3.2 9.7 0.00 0.00 0.00 69 1011.6
20260505021804 16 152 3.2 4.8 0.00 0.00 0.00 69 1011.5
20260505021304 16 154 1.6 3.2 0.00 0.00 0.00 68 1011.6
20260505015805 16 154 1.6 4.8 0.00 0.00 0.00 67 1011.6
20260505014307 16 153 1.6 4.8 0.00 0.00 0.00 66 1011.5
20260505013303 16 142 1.6 4.8 0.00 0.00 0.00 65 1011.4
20260505012803 16 165 1.6 8.0 0.00 0.00 0.00 65 1011.3
20260505012306 16 164 1.6 8.0 0.00 0.00 0.00 64 1011.3
20260505010803 16 165 1.6 4.8 0.00 0.00 0.00 64 1011.1
20260505010304 17 165 1.6 4.8 0.00 0.00 0.00 62 1011.1
20260505004804 17 156 3.2 9.7 0.00 0.00 0.00 59 1011.0
20260505004305 17 157 3.2 9.7 0.00 0.00 0.00 58 1011.1
20260505003805 18 159 3.2 14.5 0.00 0.00 0.00 57 1011.0
20260505003304 18 165 4.8 14.5 0.00 0.00 0.00 57 1011.0
20260505002304 18 176 4.8 14.5 0.00 0.00 0.00 54 1011.0
20260504235803 19 150 8.0 19.3 0.00 0.00 0.00 50 1010.9
20260504235305 19 157 9.7 19.3 0.00 0.00 0.00 49 1010.9
20260504234805 19 154 6.4 16.1 0.00 0.00 0.00 49 1010.9
20260504232304 20 159 6.4 25.7 0.00 0.00 0.00 49 1011.0
20260504231803 20 162 11.3 25.7 0.00 0.00 0.00 47 1011.0
20260504231304 20 159 4.8 19.3 0.00 0.00 0.00 47 1011.0
20260504224804 21 156 11.3 27.4 0.00 0.00 0.00 47 1010.9
20260504224305 21 159 6.4 22.5 0.00 0.00 0.00 47 1010.9
20260504223803 21 151 6.4 22.5 0.00 0.00 0.00 45 1010.8
20260504222803 21 153 6.4 20.9 0.00 0.00 0.00 45 1010.9
20260504222305 21 163 6.4 27.4 0.00 0.00 0.00 45 1010.8
20260504220804 22 163 9.7 22.5 0.00 0.00 0.00 45 1010.8
20260504214304 22 148 8.0 22.5 0.00 0.00 0.00 43 1010.9
20260504213805 22 142 8.0 22.5 0.00 0.00 0.00 42 1010.9
20260504213304 22 126 11.3 22.5 0.00 0.00 0.00 41 1010.9
20260504211304 23 150 6.4 20.9 0.00 0.00 0.00 43 1010.8
20260504205304 23 156 11.3 25.7 0.00 0.00 0.00 41 1010.8
20260504201805 22 91 4.8 19.3 0.00 0.00 0.00 44 1011.3
20260504200804 22 125 8.0 25.7 0.00 0.00 0.00 42 1011.3
20260504195804 22 136 6.4 19.3 0.00 0.00 0.00 42 1011.8
20260504191804 22 155 6.4 19.3 0.00 0.00 0.00 43 1012.4
20260504191304 23 105 8.0 16.1 0.00 0.00 0.00 41 1012.5
20260504185805 23 133 6.4 19.3 0.00 0.00 0.00 44 1012.7
20260504183804 23 151 9.7 22.5 0.00 0.00 0.00 39 1012.8
20260504181804 22 134 9.7 24.1 0.00 0.00 0.00 40 1012.8
20260504181304 22 155 14.5 24.1 0.00 0.00 0.00 40 1012.9
20260504175804 22 218 8.0 25.7 0.00 0.00 0.00 41 1013.0
20260504174304 22 168 8.0 16.1 0.00 0.00 0.00 37 1013.2
20260504173803 22 213 8.0 16.1 0.00 0.00 0.00 42 1013.4
20260504172304 22 159 4.8 16.1 0.00 0.00 0.00 42 1013.7
20260504170803 21 179 3.2 20.9 0.00 0.00 0.00 39 1013.7
20260504150303 18 195 8.0 14.5 0.00 0.00 0.00 45 1014.9
20260504130803 13 185 8.0 12.9 0.00 0.00 0.00 57 1015.7
20260504130303 13 200 3.2 11.3 0.00 0.00 0.00 58 1015.7
20260504120304 12 191 4.8 8.0 0.00 0.00 0.00 66 1015.9
20260504081805 5 241 0.0 0.0 0.00 0.00 0.00 89 1016.4
20260504080806 5 241 0.0 0.0 0.00 0.00 0.00 89 1016.5
20260504050306 5 255 0.0 0.0 0.00 0.00 0.00 86 1016.5
20260504045805 5 255 0.0 3.2 0.00 0.00 0.00 86 1016.6
20260504044805 5 255 1.6 3.2 0.00 0.00 0.00 86 1016.7
20260504043805 5 255 0.0 1.6 0.00 0.00 0.00 84 1016.7
20260504043305 5 255 1.6 3.2 0.00 0.00 0.00 84 1016.7
20260504042805 5 255 0.0 4.8 0.00 0.00 0.00 84 1016.6
20260504041305 5 255 1.6 4.8 0.00 0.00 0.00 85 1016.4
20260504040814 5 255 1.6 4.8 0.00 0.00 0.00 84 1016.3
20260504040306 5 255 1.6 3.2 0.00 0.00 0.00 83 1016.3
20260504035805 5 255 1.6 4.8 0.00 0.00 0.00 81 1016.5
20260504035305 5 255 1.6 4.8 0.00 0.00 0.00 80 1016.5
20260504034805 6 255 0.0 3.2 0.00 0.00 0.00 79 1016.4
20260504034305 6 255 0.0 4.8 0.00 0.00 0.00 79 1016.4
20260504031804 6 255 1.6 3.2 0.00 0.00 0.00 79 1016.2
20260504030804 6 255 0.0 1.6 0.00 0.00 0.00 80 1016.1
20260504025805 6 255 0.0 3.2 0.00 0.00 0.00 76 1016.2